Greenville, ME

11:05 PM EDT on July 21, 2017 (GMT -0400)
Greenville

Weather History for KGNR - November, 2012

Change the Weather History Date:

Sunday, November 25, 2012

  Actual Average (KMLT) Record (KMLT)
Temperature  
Mean Temperature 22 °F -  
Max Temperature 25 °F 36 °F 59 °F (2014)
Min Temperature 19 °F 23 °F -5 °F (1989)
Degree Days  
Heating Degree Days 43    
Moisture  
Dew Point 13 °F    
Average Humidity 69    
Maximum Humidity 75    
Minimum Humidity 63    
Precipitation  
Precipitation 0.00 in - - ()
Sea Level Pressure  
Sea Level Pressure 29.49 in    
Wind  
Wind Speed 9 mph (WNW)    
Max Wind Speed 16 mph    
Max Gust Speed 31 mph    
Averages and records for this station are not official NWS values.
T = Trace of Precipitation, MM = Missing Value Source: NWS Daily Summary

Daily Weather History Graph

Daily Weather History Graph

Search for Another Location

Airport or City:

Trip Planner

Search our weather history database for the weather conditions in past years. The results will help you decide how hot, cold, wet, or windy it might be!

Date:

Astronomy

Nov. 25, 2012 Rise Set
Actual Time 6:51 AM EST 3:59 PM EST
Civil Twilight 6:18 AM EST 4:32 PM EST
Nautical Twilight 5:41 AM EST 5:09 PM EST
Astronomical Twilight 5:06 AM EST 5:44 PM EST
Moon 2:19 PM EST (11/25) 3:56 AM EST (11/25)
Length of Visible Light 10h 14m
Length of Day
9h 08m
Waxing Gibbous, 93% of the Moon is Illuminated
Nov 25
Waxing Gibbous
Nov 28
Full
Dec 6
Last Quarter
Dec 13
New
Dec 20
First Quarter

Hourly Weather History & Observations

Time (EST) Temp. Windchill Dew Point Humidity Pressure Visibility Wind Dir Wind Speed Gust Speed Precip Events Conditions
12:56 AM 25.0 °F 15.5 °F 18.0 °F 75% 29.36 in - NW 9.2 mph 23.0 mph N/A   Unknown
1:56 AM 23.0 °F 9.6 °F 15.1 °F 72% 29.37 in - NW 16.1 mph 28.8 mph N/A   Unknown
2:56 AM 23.0 °F 13.1 °F 16.0 °F 74% 29.38 in - NW 9.2 mph 19.6 mph N/A   Unknown
3:56 AM 23.0 °F 13.1 °F 15.1 °F 72% 29.39 in - WNW 9.2 mph 17.3 mph N/A   Unknown
4:56 AM 21.9 °F 11.7 °F 14.0 °F 72% 29.40 in - WNW 9.2 mph 31.1 mph N/A   Unknown
5:56 AM 21.9 °F 11.7 °F 14.0 °F 72% 29.42 in - WNW 9.2 mph 25.3 mph N/A   Unknown
6:56 AM 21.9 °F 11.0 °F 14.0 °F 72% 29.43 in - WNW 10.4 mph 25.3 mph N/A   Unknown
7:56 AM 21.9 °F 11.7 °F 14.0 °F 72% 29.44 in - WNW 9.2 mph 28.8 mph N/A   Unknown
8:56 AM 21.9 °F 13.4 °F 14.0 °F 72% 29.46 in - Variable 6.9 mph 26.5 mph N/A   Unknown
9:56 AM 23.0 °F 13.1 °F 14.0 °F 68% 29.47 in - WNW 9.2 mph 23.0 mph N/A   Unknown
10:56 AM 23.0 °F 11.7 °F 12.0 °F 63% 29.47 in - WNW 11.5 mph 26.5 mph N/A   Unknown
11:56 AM 23.0 °F 13.1 °F 12.0 °F 63% 29.47 in - West 9.2 mph 25.3 mph N/A   Unknown
12:56 PM 23.0 °F 17.0 °F 12.9 °F 65% 29.48 in - Variable 4.6 mph - N/A   Unknown
1:56 PM 21.9 °F 13.4 °F 10.9 °F 63% 29.49 in - Variable 6.9 mph 20.7 mph N/A   Unknown
2:56 PM 21.9 °F 13.4 °F 12.0 °F 66% 29.51 in - Variable 6.9 mph - N/A   Unknown
3:56 PM 21.0 °F 11.4 °F 10.9 °F 65% 29.52 in - West 8.1 mph - N/A   Unknown
4:56 PM 21.0 °F 12.4 °F 12.0 °F 68% 29.55 in - Variable 6.9 mph - N/A   Unknown
5:56 PM 19.9 °F 10.1 °F 10.9 °F 68% 29.56 in - West 8.1 mph - N/A   Unknown
6:56 PM 19.9 °F 11.1 °F 10.9 °F 68% 29.58 in - Variable 6.9 mph - N/A   Unknown
7:56 PM 19.9 °F 12.1 °F 12.0 °F 71% 29.60 in - Variable 5.8 mph - N/A   Unknown
8:56 PM 19.9 °F 7.9 °F 12.0 °F 71% 29.61 in - West 11.5 mph 26.5 mph N/A   Unknown
9:56 PM 19.9 °F 11.1 °F 10.0 °F 65% 29.62 in - Variable 6.9 mph 24.2 mph N/A   Unknown
10:56 PM 19.0 °F 8.2 °F 9.0 °F 65% 29.63 in - NW 9.2 mph 27.6 mph N/A   Unknown
11:56 PM 19.0 °F 10.0 °F 10.0 °F 68% 29.65 in - Variable 6.9 mph - N/A   Unknown